This demonstration page uses our WeatherBlox Daily Observations layout. Learn more.

Left ArrowRight Arrow

Hourly Observations for June 2, 2015

Temp ( °F °C ) Dew Point ( °F °C ) Humidity (%) Winds ( mph kmh ) Pressure ( in mb ) Visibility ( mi km ) Precip ( " mm )
12:54 am 00:54 Clear 61 16.1 55 12.8 81 81 SSE 12 19 30.03 1017 9 14.48406 N/A
1:54 am 01:54 Clear 59 15 54 12.2 83 83 SSE 12 19 30.04 1017 8 12.87472 N/A
2:54 am 02:54 Clear 58 14.4 54 12.2 87 87 S 10 17 30.03 1017 8 12.87472 N/A
3:54 am 03:54 Cloudy 59 15 54 12.2 83 83 SSE 10 17 30.02 1017 9 14.48406 N/A
4:54 am 04:54 Cloudy 58 14.4 53 11.7 84 84 SSE 14 22 30.03 1017 10 16.0934 N/A
5:54 am 05:54 Mostly Cloudy 58 14.4 53 11.7 84 84 SSE 13 20 30.02 1017 10 16.0934 N/A
6:54 am 06:54 Cloudy 58 14.4 53 11.7 84 84 SSE 8 13 30.04 1017 10 16.0934 N/A
7:18 am 07:18 Cloudy with Light Rain 57 14 54 12 88 88 SSE 9 15 30.06 1018 9 14.48406 N/A
7:54 am 07:54 Mostly Cloudy 59 15 54 12.2 83 83 SSE 14 22 30.01 1016 10 16.0934 N/A
8:08 am 08:08 Cloudy 59 15 54 12 82 82 SSE 13 20 30.03 1017 10 16.0934 N/A
8:54 am 08:54 Mostly Cloudy 61 16.1 55 12.8 81 81 SSE 20 31 29.99 1016 10 16.0934 N/A
9:06 am 09:06 Mostly Cloudy 62 16.7 55 12.8 78 78 S 18 30 30 1016 10 16.0934 N/A
9:54 am 09:54 Mostly Cloudy 65 18.3 56 13.3 73 73 SE 17 28 29.97 1015 10 16.0934 N/A
10:54 am 10:54 Mostly Cloudy 68 20 58 14.4 70 70 SE 13 20 29.96 1015 10 16.0934 N/A
11:54 am 11:54 Cloudy 67 19.4 58 14.4 73 73 SSE 14 22 29.97 1015 10 16.0934 N/A
12:54 pm 12:54 Cloudy 70 21.1 60 15.6 71 71 SSE 16 26 29.95 1014 10 16.0934 N/A
1:54 pm 13:54 Cloudy 71 21.7 60 15.6 68 68 SE 12 19 29.93 1014 10 16.0934 N/A
2:47 pm 14:47 Mostly Cloudy 73 22.8 61 16.1 66 66 SE 17 28 29.88 1012 10 16.0934 N/A
2:54 pm 14:54 Partly Cloudy 75 23.9 62 16.7 64 64 ESE 15 24 29.92 1013 10 16.0934 N/A
3:54 pm 15:54 Mostly Sunny 78 25.6 63 17.2 60 60 SE 17 28 29.88 1012 10 16.0934 N/A
4:54 pm 16:54 Mostly Cloudy 78 25.6 64 17.8 62 62 SE 15 24 29.87 1012 10 16.0934 N/A
5:54 pm 17:54 Cloudy 79 26.1 64 17.8 60 60 SE 17 28 29.86 1011 10 16.0934 N/A
6:54 pm 18:54 Mostly Sunny 76 24.4 64 17.8 67 67 SSE 18 30 29.85 1011 10 16.0934 N/A
7:54 pm 19:54 Mostly Sunny 73 22.8 63 17.2 71 71 SSE 20 31 29.85 1011 10 16.0934 N/A
8:54 pm 20:54 Clear 71 21.7 62 16.7 73 73 SE 16 26 29.86 1011 10 16.0934 N/A
9:54 pm 21:54 Clear 69 20.6 61 16.1 76 76 SE 15 24 29.87 1012 10 16.0934 N/A
10:54 pm 22:54 Clear 68 20 61 16.1 78 78 SE 15 24 29.86 1011 10 16.0934 N/A
11:54 pm 23:54 Clear 68 20 61 16.1 78 78 SSE 10 17 29.86 1011 10 16.0934 N/A

Powered by AerisWeather